Location: Shenandoah County Park
(38.9356°N, 78.4524°W)
Time: 15:43:31
(UTC-04:00)

CAS-4B - Pass Details

Date: 23 April 2024
Orbit: 476 x 492 km, 43.0° (Epoch: 20 May)

Event Time Altitude Azimuth Distance (km) Brightness Sun altitude
Exits shadow 03:38:48 29° 54° (NE) 920 ? -28.0°
Drops below altitude 10° 03:40:51 10° 67° (ENE) 1,671 ? -27.8°
Sets 03:43:05 0° 71° (ENE) 2,558 ? -27.5°
